Weather History for Smyrna, TN

Change the Weather History Date:

Saturday, June 7, 2014

  Actual Average Record
Temperature  
Mean Temperature 77 °F -  
Max Temperature 86 °F 80 °F 101 °F (2011)
Min Temperature 68 °F 65 °F 54 °F (2006)
Cooling Degree Days 12    
Growing Degree Days 27 (Base 50)    
Moisture  
Dew Point 69 °F    
Average Humidity 83    
Maximum Humidity 100    
Minimum Humidity 55    
Precipitation  
Precipitation 0.17 in - - ()
Sea Level Pressure  
Sea Level Pressure 29.96 in    
Wind  
Wind Speed 3 mph (SW)    
Max Wind Speed 15 mph    
Max Gust Speed 30 mph    
Visibility 9 miles    
Events Rain , Thunderstorm    
Averages and records for this station are not official NWS values.
T = Trace of Precipitation, MM = Missing Value Source: NWS Daily Summary

Daily Weather History Graph

Daily Weather History Graph

Search for Another Location

Airport:

Trip Planner

Search our weather history database for the weather conditions in past years. The results will help you decide how hot, cold, wet, or windy it might be!

Date:

Astronomy

Jun. 07, 2014 Rise Set
Actual Time 5:29 AM CDT 8:00 PM CDT
Civil Twilight 4:59 AM CDT 8:30 PM CDT
Nautical Twilight 4:22 AM CDT 9:08 PM CDT
Astronomical Twilight 3:40 AM CDT 9:49 PM CDT
Moon 2:27 PM CDT (6/7) 1:40 AM CDT (6/7)
Length of Visible Light 15h 31m
Length of Day
14h 31m
Waxing Gibbous, 68% of the Moon is Illuminated
Jun 7
Waxing Gibbous
Jun 12
Full
Jun 19
Last Quarter
Jun 27
New
Jul 5
First Quarter

Hourly Weather History & Observations

Time (CDT) Temp. Heat Index Dew Point Humidity Pressure Visibility Wind Dir Wind Speed Gust Speed Precip Events Conditions
1:56 AM 72.0 °F - 70.0 °F 93% 29.97 in 10.0 mi Calm Calm - N/A   Partly Cloudy
2:56 AM 72.0 °F - 70.0 °F 93% 29.99 in 10.0 mi Calm Calm - N/A   Clear
3:56 AM 70.0 °F - 68.9 °F 96% 29.98 in 10.0 mi Calm Calm - N/A   Clear
4:56 AM 70.0 °F - 68.9 °F 96% 29.98 in 10.0 mi Calm Calm - N/A   Partly Cloudy
5:56 AM 68.0 °F - 68.0 °F 100% 30.00 in 4.0 mi Calm Calm - N/A   Clear
6:03 AM 68.0 °F - 68.0 °F 100% 29.99 in 4.0 mi Calm Calm - N/A   Partly Cloudy
6:56 AM 70.9 °F - 70.9 °F 100% 30.02 in 9.0 mi Calm Calm - N/A   Mostly Cloudy
7:10 AM 71.6 °F - 71.6 °F 100% 30.01 in 4.0 mi Calm Calm - N/A   Mostly Cloudy
7:56 AM 73.9 °F - 70.9 °F 90% 30.03 in 6.0 mi Calm Calm - N/A   Mostly Cloudy
8:02 AM 73.4 °F - 69.8 °F 88% 30.02 in 10.0 mi WNW 3.5 mph - N/A   Mostly Cloudy
8:56 AM 74.8 °F - 70.0 °F 85% 30.03 in 10.0 mi Calm Calm - N/A   Overcast
9:56 AM 77.9 °F - 70.9 °F 79% 30.02 in 10.0 mi Calm Calm - N/A   Overcast
10:56 AM 79.9 °F - 72.0 °F 77% 30.01 in 10.0 mi Variable 6.9 mph - N/A   Mostly Cloudy
11:28 AM 80.6 °F 84.6 °F 71.6 °F 74% 29.98 in 10.0 mi South 6.9 mph - N/A   Partly Cloudy
11:45 AM 82.4 °F 88.2 °F 73.4 °F 74% 29.97 in 10.0 mi Variable 5.8 mph - N/A   Mostly Cloudy
11:56 AM 81.9 °F 86.6 °F 72.0 °F 72% 29.99 in 10.0 mi Variable 5.8 mph - N/A   Mostly Cloudy
1:56 PM 86.0 °F 89.7 °F 68.9 °F 56% 29.95 in 10.0 mi SSW 6.9 mph - N/A   Clear
2:56 PM 86.9 °F 91.0 °F 68.9 °F 55% 29.94 in 10.0 mi West 9.2 mph - N/A   Scattered Clouds
3:56 PM 86.9 °F 91.7 °F 70.0 °F 57% 29.91 in 10.0 mi SW 10.4 mph - N/A   Scattered Clouds
4:56 PM 86.0 °F 89.4 °F 68.0 °F 55% 29.91 in 10.0 mi West 6.9 mph - N/A   Mostly Cloudy
5:56 PM 83.8 °F 88.1 °F 70.0 °F 63% 29.92 in 10.0 mi SW 4.6 mph - N/A   Scattered Clouds
6:56 PM 81.9 °F 85.6 °F 70.0 °F 67% 29.92 in 10.0 mi SW 4.6 mph - N/A   Partly Cloudy
7:21 PM 78.8 °F - 66.2 °F 65% 29.92 in 1.8 mi South 9.2 mph 29.9 mph 0.10 in Rain Light Rain
7:31 PM 73.4 °F - 69.8 °F 88% 29.92 in 2.5 mi East 12.7 mph - 0.13 in Rain Light Rain
7:34 PM 73.4 °F - 68.0 °F 83% 29.92 in 3.0 mi Variable 5.8 mph - 0.13 in Rain Light Rain
7:45 PM 73.4 °F - 66.2 °F 78% 29.91 in 10.0 mi South 3.5 mph - 0.13 in Rain , Thunderstorm Light Thunderstorms and Rain
7:56 PM 70.9 °F - 68.0 °F 91% 29.91 in 10.0 mi SE 6.9 mph - 0.13 in Rain , Thunderstorm Light Thunderstorms and Rain
8:56 PM 70.9 °F - 70.0 °F 97% 29.94 in 10.0 mi SW 4.6 mph - 0.01 in Thunderstorm Thunderstorm
9:36 PM 71.6 °F - 66.2 °F 83% 29.94 in 10.0 mi SW 8.1 mph - 0.00 in Rain Light Rain
9:44 PM 69.8 °F - 66.2 °F 88% 29.94 in 10.0 mi West 13.8 mph 18.4 mph 0.00 in Rain , Thunderstorm Light Thunderstorms and Rain
9:56 PM 70.9 °F - 68.0 °F 91% 29.95 in 10.0 mi WSW 15.0 mph - 0.00 in Rain Light Rain
10:07 PM 69.8 °F - 66.2 °F 88% 29.93 in 10.0 mi SW 10.4 mph 19.6 mph 0.00 in Rain , Thunderstorm Light Thunderstorms and Rain
10:34 PM 69.8 °F - 66.2 °F 88% 29.91 in 8.0 mi SSW 11.5 mph 19.6 mph 0.02 in Rain Light Rain
10:56 PM 68.9 °F - 65.8 °F 90% 29.88 in 10.0 mi South 12.7 mph - 0.03 in Rain Light Rain
11:56 PM 68.0 °F - 65.8 °F 93% 29.90 in 10.0 mi South 6.9 mph - 0.00 in   Clear